N4OOJ-13 Weather Reports


Display with metric or nautical units.
time (UTC)temp
F
wind
direction
speed
MPH
gust
MPH
rain 1hr
in
rain 24hr
in
rain mn
in
humidity
%
barometer
mb
20260506135024 80 212 3.0 4.0 0.00 0.00 0.00 66 1018.5
20260506134021 78 176 2.0 4.0 0.00 0.00 0.00 70 1018.6
20260506133027 78 219 2.0 5.0 0.00 0.00 0.00 70 1018.4
20260506132021 79 241 2.0 5.0 0.00 0.00 0.00 69 1018.3
20260506131021 78 276 3.0 6.0 0.00 0.00 0.00 70 1018.2
20260506130033 76 189 1.0 5.0 0.00 0.00 0.00 74 1018.2
20260506125033 75 201 1.0 5.0 0.00 0.00 0.00 77 1018.2
20260506124033 73 197 2.0 3.0 0.00 0.00 0.00 80 1018.0
20260506123016 72 225 2.0 5.0 0.00 0.00 0.00 83 1017.9
20260506122029 70 166 2.0 4.0 0.00 0.00 0.00 85 1017.9
20260506121029 68 177 1.0 2.0 0.00 0.00 0.00 89 1017.9
20260506120027 66 128 3.0 5.0 0.00 0.00 0.00 91 1017.8
20260506115026 64 113 1.0 3.0 0.00 0.00 0.00 96 1017.8
20260506114020 61 90 0.0 2.0 0.00 0.00 0.00 99 1017.7
20260506113015 58 112 1.0 2.0 0.00 0.00 0.00 99 1017.6
20260506112029 56 0.0 0.0 0.00 0.00 0.00 99 1017.5
20260506111019 55 0.0 0.0 0.00 0.00 0.00 99 1017.4
20260506110018 54 0.0 0.0 0.00 0.00 0.00 99 1017.4
20260506105030 54 0.0 0.0 0.00 0.00 0.00 99 1017.5
20260506104025 54 0.0 0.0 0.00 0.00 0.00 99 1017.5
20260506103026 54 0.0 0.0 0.00 0.00 0.00 99 1017.5
20260506102020 54 0.0 0.0 0.00 0.00 0.00 99 1017.4
20260506101020 54 0.0 0.0 0.00 0.00 0.00 99 1017.4
20260506100025 54 0.0 0.0 0.00 0.00 0.00 99 1017.3
20260506095019 54 0.0 0.0 0.00 0.00 0.00 99 1017.3
20260506094019 54 0.0 0.0 0.00 0.00 0.00 99 1017.3
20260506093032 54 0.0 0.0 0.00 0.00 0.00 99 1017.3
20260506092026 54 0.0 0.0 0.00 0.00 0.00 99 1017.4
20260506091020 54 0.0 0.0 0.00 0.00 0.00 99 1017.5
20260506090033 54 0.0 0.0 0.00 0.00 0.00 99 1017.5
20260506085032 55 0.0 0.0 0.00 0.00 0.00 99 1017.4
20260506084031 55 0.0 0.0 0.00 0.00 0.00 99 1017.5
20260506083026 55 0.0 0.0 0.00 0.00 0.00 99 1017.8
20260506082026 55 0.0 0.0 0.00 0.00 0.00 99 1017.7
20260506081021 55 0.0 0.0 0.00 0.00 0.00 99 1017.6
20260506073018 55 0.0 0.0 0.00 0.00 0.00 99 1017.2
20260506072018 55 0.0 0.0 0.00 0.00 0.00 99 1017.3
20260506071031 55 0.0 0.0 0.00 0.00 0.00 99 1017.4
20260506062018 55 0.0 0.0 0.00 0.00 0.00 99 1018.0
20260506061019 55 0.0 0.0 0.00 0.00 0.00 99 1017.8
20260506051027 56 0.0 0.0 0.00 0.00 0.00 98 1018.2
20260506045026 57 0.0 0.0 0.00 0.00 0.00 98 1018.3
20260506044020 57 0.0 0.0 0.00 0.00 0.00 98 1018.3
20260506043032 57 0.0 0.0 0.00 0.00 0.00 99 1018.7
20260506042027 57 0.0 0.0 0.00 0.00 0.00 98 1018.7
20260506041021 57 0.0 0.0 0.00 0.00 0.00 98 1018.7
20260506040032 57 0.0 0.0 0.00 0.00 0.00 97 1018.6
20260506035031 58 0.0 0.0 0.00 0.00 0.00 97 1018.5
20260506034025 58 0.0 0.0 0.00 0.00 0.00 97 1018.5
20260506033020 58 0.0 0.0 0.00 0.00 0.00 96 1018.3
20260506032020 58 0.0 0.0 0.00 0.00 0.00 96 1018.4
20260506031026 58 0.0 0.0 0.00 0.00 0.00 96 1018.4
20260506030020 58 0.0 0.0 0.00 0.00 0.00 95 1018.5
20260506025026 59 0.0 0.0 0.00 0.00 0.00 92 1018.5
20260506024020 59 0.0 0.0 0.00 0.00 0.00 92 1018.2
20260506023021 60 0.0 0.0 0.00 0.00 0.00 91 1018.5
20260506022032 60 0.0 0.0 0.00 0.00 0.00 91 1018.6
20260506021027 60 0.0 0.0 0.00 0.00 0.00 90 1018.6
20260506020022 61 0.0 0.0 0.00 0.00 0.00 88 1018.5
20260506015016 62 0.0 0.0 0.00 0.00 0.00 86 1018.4
20260506014018 62 0.0 0.0 0.00 0.00 0.00 85 1018.2
20260506013016 63 0.0 0.0 0.00 0.00 0.00 83 1018.0
20260506012022 63 135 0.0 2.0 0.00 0.00 0.00 82 1018.0
20260506011017 64 87 1.0 2.0 0.00 0.00 0.00 80 1018.0
20260506010018 65 88 2.0 3.0 0.00 0.00 0.00 79 1018.1
20260506005018 66 0.0 0.0 0.00 0.00 0.00 77 1018.2
20260506004019 66 0.0 0.0 0.00 0.00 0.00 74 1017.8
20260506003026 67 94 2.0 3.0 0.00 0.00 0.00 73 1017.9
20260506002025 68 91 2.0 3.0 0.00 0.00 0.00 71 1017.9
20260506001025 69 107 2.0 4.0 0.00 0.00 0.00 70 1017.9
20260506000020 70 223 1.0 4.0 0.00 0.00 0.00 68 1017.9
20260505235020 71 144 2.0 3.0 0.00 0.00 0.00 65 1017.9
20260505234026 72 268 1.0 2.0 0.00 0.00 0.00 62 1017.9
20260505233020 74 227 3.0 5.0 0.00 0.00 0.00 59 1017.5
20260505232021 77 325 3.0 6.0 0.00 0.00 0.00 55 1017.6
20260505231020 77 209 2.0 3.0 0.00 0.00 0.00 53 1017.5
20260505230020 78 215 3.0 6.0 0.00 0.00 0.00 53 1017.5
20260505225032 77 118 3.0 8.0 0.00 0.00 0.00 52 1017.6
20260505224027 79 102 3.0 5.0 0.00 0.00 0.00 51 1017.6
20260505223032 79 118 4.0 7.0 0.00 0.00 0.00 51 1017.5
20260505222028 80 120 3.0 5.0 0.00 0.00 0.00 49 1017.5
20260505221028 80 64 3.0 6.0 0.00 0.00 0.00 48 1017.7
20260505220029 79 72 4.0 7.0 0.00 0.00 0.00 48 1017.6
20260505215024 79 102 4.0 6.0 0.00 0.00 0.00 49 1017.5
20260505214018 80 110 4.0 6.0 0.00 0.00 0.00 48 1017.7
20260505213042 79 176 2.0 6.0 0.00 0.00 0.00 50 1017.6
20260505212026 80 64 5.0 8.0 0.00 0.00 0.00 49 1017.7
20260505211016 80 312 3.0 6.0 0.00 0.00 0.00 48 1017.7
20260505210033 82 280 4.0 10.0 0.00 0.00 0.00 46 1017.7
20260505205033 82 69 4.0 7.0 0.00 0.00 0.00 44 1017.5
20260505204033 81 75 4.0 9.0 0.00 0.00 0.00 45 1017.6
20260505203032 82 155 4.0 6.0 0.00 0.00 0.00 46 1017.6
20260505202021 82 19 5.0 7.0 0.00 0.00 0.00 45 1017.6
20260505201016 84 210 4.0 6.0 0.00 0.00 0.00 44 1017.9
20260505200023 82 204 3.0 5.0 0.00 0.00 0.00 44 1018.0
20260505195017 82 81 6.0 9.0 0.00 0.00 0.00 44 1017.9
20260505194018 83 158 4.0 11.0 0.00 0.00 0.00 45 1018.0
20260505193031 83 84 3.0 5.0 0.00 0.00 0.00 45 1018.5
20260505192026 84 78 5.0 7.0 0.00 0.00 0.00 42 1018.8
20260505191021 87 272 4.0 7.0 0.00 0.00 0.00 40 1018.8
20260505190016 85 75 3.0 7.0 0.00 0.00 0.00 43 1018.9
20260505185029 86 23 4.0 6.0 0.00 0.00 0.00 42 1018.9
20260505184029 83 5 4.0 6.0 0.00 0.00 0.00 44 1018.9
20260505183029 86 210 5.0 9.0 0.00 0.00 0.00 42 1018.8
20260505182019 84 183 4.0 7.0 0.00 0.00 0.00 45 1018.5
20260505181026 81 15 3.0 7.0 0.00 0.00 0.00 48 1018.7
20260505180021 81 87 3.0 10.0 0.00 0.00 0.00 49 1018.7
20260505175015 82 83 4.0 7.0 0.00 0.00 0.00 45 1018.6
20260505174022 81 74 3.0 6.0 0.00 0.00 0.00 48 1018.7
20260505173016 79 77 3.0 5.0 0.00 0.00 0.00 49 1018.8
20260505172016 83 265 4.0 7.0 0.00 0.00 0.00 45 1019.0
20260505171016 79 141 3.0 6.0 0.00 0.00 0.00 50 1019.3
20260505170028 79 72 3.0 5.0 0.00 0.00 0.00 49 1019.3
20260505165023 81 29 3.0 7.0 0.00 0.00 0.00 49 1019.3
20260505164021 82 226 3.0 4.0 0.00 0.00 0.00 48 1019.7
20260505163027 82 60 6.0 11.0 0.00 0.00 0.00 46 1019.7
20260505162021 82 4 3.0 5.0 0.00 0.00 0.00 47 1019.7
20260505161017 81 272 3.0 8.0 0.00 0.00 0.00 49 1020.0
20260505153027 80 237 2.0 4.0 0.00 0.00 0.00 52 1019.9
20260505152022 80 268 3.0 6.0 0.00 0.00 0.00 50 1019.9
20260505151021 80 261 3.0 6.0 0.00 0.00 0.00 50 1019.9